Flag for Mexico Past Weather in Fresnillo, Zacatecas, Mexico — Yesterday and Last 2 Weeks

Now
66 °F

Sunny.


Feels Like: 66 °F
Forecast: 58 / 85 °F
Wind: 12 mph from Southwest

Location: Zacatecas Airport

Current Time: May 26, 2017 at 10:11:57 am

Latest Report: May 26, 2017 at 9:08 am


Visibility: 10 mi

Pressure: 30.31 "Hg (23.47 "Hg at 2187m altitude)

Humidity: 46%

Dew Point: 45 °F

Location of FresnilloLocation

Past Weather in Fresnillo — Graph

°F

Fresnillo Temperature Yesterday

Maximum temperature yesterday: 90 °F (at 5:46 pm)
Minimum temperature yesterday: 57 °F (at 6:53 am)
Average temperature yesterday: 76 °F

High & Low Weather Summary for the Past Weeks

 TemperatureHumidityPressure
High91 °F (May 22, 4:42 pm)67% (May 13, 4:52 am)30.32 "Hg (May 13, 4:52 am)
Low46 °F (May 17, 6:41 am)10% (May 18, 7:09 pm)30.07 "Hg (May 19, 5:54 pm)
Average73 °F22%30.19 "Hg
* Reported May 11 7:50 am — May 26 7:45 am, Fresnillo. Weather by CustomWeather, © 2017

Note: Actual official high and low records may vary slightly from our data, if they occured in-between our weather recording intervals... More about our weather records

Advertising

Fresnillo Weather History for the Previous 24 Hours

Scroll right to see more
 ConditionsComfort  
Time TempWeatherWind HumidityBarometerVisibility
7:45 am
Fri, May 26
61 °FScattered clouds.12 mph42%30.29 "Hg8 mi
6:40 am61 °FClear.7 mph42%30.28 "Hg8 mi
5:45 am61 °FClear.7 mph42%30.28 "Hg8 mi
4:57 am63 °FClear.12 mph37%30.26 "Hg8 mi
11:53 pm
Thu, May 25
70 °FClear.12 mph21%30.24 "Hg8 mi
10:41 pm73 °FClear.14 mph17%30.21 "Hg8 mi
9:42 pm77 °FPassing clouds.22 mph15%30.19 "Hg8 mi
8:44 pm81 °FPassing clouds.9 mph17%30.15 "Hg8 mi
7:51 pm84 °FPartly sunny.12 mph15%30.13 "Hg8 mi
6:51 pm88 °FPartly sunny.3 mph13%30.11 "Hg8 mi
5:46 pm90 °FScattered clouds.17 mph13%30.12 "Hg8 mi
4:53 pm88 °FPassing clouds.7 mph13%30.13 "Hg8 mi
3:46 pm86 °FPassing clouds.17 mph14%30.16 "Hg8 mi
2:46 pm86 °FPassing clouds.17 mph15%30.20 "Hg8 mi
1:48 pm84 °FPassing clouds.14 mph19%30.22 "Hg10 mi
1:01 pm82 °FSunny.13 mph19%30.23 "Hg10 mi
11:47 am79 °FSunny.14 mph28%30.25 "Hg10 mi
10:41 am73 °FSunny.17 mph36%30.25 "Hg10 mi
10:16 am72 °FSunny.15 mph38%30.25 "Hg10 mi
Weather by CustomWeather, © 2017

See weather overviewHow to use our weather pages